AUL509 ULLI-UWGG

Flight info

Callsign AUL509
Flight time 1h 27m
Altitude 37000
Route SUGIN T873 NIRGI T73 DESUD P164 GAKLU N869 RANTO T540 POGAS T747 OLATU T784 ADMUL L94 USTOK
Aircraft B738/M-VGDW/C

Departure

Time 2026-05-04 22:45
Airport Pulkovo Airport (ULLI)

Arrival

Time 2026-05-05 00:12
Airport Nizhny Novgorod / Strigino International Airport (UWGG)
Time Latitude Longitude Altitude Speed Heading
2026-05-04 22:14 59.79741 30.26604 81 ft 0 kts 107°
2026-05-04 22:20 59.79744 30.26582 77 ft 4 kts 105°
2026-05-04 22:20 59.79751 30.26532 93 ft 4 kts 107°
2026-05-04 22:20 59.79753 30.26505 90 ft 2 kts 45°
2026-05-04 22:20 59.79743 30.26494 88 ft 2 kts 17°
2026-05-04 22:21 59.79733 30.26488 92 ft 2 kts 16°
2026-05-04 22:21 59.79730 30.26486 91 ft 0 kts 16°
2026-05-04 22:37 59.79732 30.26488 86 ft 1 kts 16°
2026-05-04 22:37 59.79744 30.26495 90 ft 3 kts 16°
2026-05-04 22:37 59.79770 30.26509 90 ft 5 kts 16°
2026-05-04 22:38 59.79809 30.26531 86 ft 7 kts 15°
2026-05-04 22:38 59.79860 30.26560 90 ft 8 kts 16°
2026-05-04 22:38 59.79920 30.26594 86 ft 10 kts 16°
2026-05-04 22:38 59.79984 30.26631 86 ft 9 kts 16°
2026-05-04 22:39 59.80045 30.26666 86 ft 9 kts 16°
2026-05-04 22:39 59.80105 30.26701 90 ft 9 kts 16°
2026-05-04 22:39 59.80163 30.26735 86 ft 9 kts 17°
2026-05-04 22:39 59.80220 30.26769 89 ft 9 kts 17°
2026-05-04 22:40 59.80282 30.26806 86 ft 10 kts 17°
2026-05-04 22:40 59.80344 30.26845 87 ft 9 kts 17°
2026-05-04 22:40 59.80385 30.26923 87 ft 9 kts 90°
2026-05-04 22:40 59.80368 30.27047 87 ft 10 kts 106°
2026-05-04 22:41 59.80348 30.27186 85 ft 11 kts 106°
2026-05-04 22:41 59.80326 30.27340 87 ft 12 kts 106°
2026-05-04 22:41 59.80301 30.27510 89 ft 13 kts 107°
2026-05-04 22:41 59.80274 30.27685 88 ft 13 kts 107°
2026-05-04 22:42 59.80246 30.27870 85 ft 15 kts 107°
2026-05-04 22:42 59.80217 30.28061 78 ft 14 kts 107°
2026-05-04 22:42 59.80190 30.28243 84 ft 13 kts 107°
2026-05-04 22:42 59.80163 30.28418 83 ft 13 kts 107°
2026-05-04 22:43 59.80147 30.28530 83 ft 7 kts 98°
2026-05-04 22:43 59.80171 30.28609 80 ft 8 kts 41°
2026-05-04 22:43 59.80216 30.28698 82 ft 10 kts 48°
2026-05-04 22:43 59.80261 30.28799 78 ft 10 kts 48°
2026-05-04 22:44 59.80305 30.28877 82 ft 3 kts 13°
2026-05-04 22:44 59.80323 30.28861 71 ft 4 kts 313°
2026-05-04 22:44 59.80335 30.28810 77 ft 4 kts 287°
2026-05-04 22:44 59.80350 30.28707 79 ft 19 kts 286°
2026-05-04 22:45 59.80477 30.27853 76 ft 108 kts 286°
2026-05-04 22:45 59.81132 30.23706 1116 ft 176 kts 288°
2026-05-04 22:45 59.81509 30.21374 2244 ft 178 kts 287°
2026-05-04 22:46 59.81871 30.19152 3558 ft 157 kts 285°
2026-05-04 22:46 59.82204 30.17122 4561 ft 153 kts 285°
2026-05-04 22:46 59.82560 30.15068 5326 ft 159 kts 285°
2026-05-04 22:46 59.82919 30.12901 5925 ft 176 kts 285°
2026-05-04 22:47 59.83306 30.10457 6158 ft 200 kts 284°
2026-05-04 22:47 59.83695 30.07683 6554 ft 213 kts 283°
2026-05-04 22:47 59.84088 30.04815 7155 ft 217 kts 283°
2026-05-04 22:47 59.84325 30.01850 7826 ft 219 kts 264°
2026-05-04 22:48 59.83750 29.99070 8605 ft 225 kts 230°
2026-05-04 22:48 59.82424 29.97279 9383 ft 236 kts 216°
2026-05-04 22:48 59.81056 29.95449 10060 ft 243 kts 214°
2026-05-04 22:48 59.79384 29.94310 10597 ft 263 kts 200°
2026-05-04 22:49 59.77577 29.93430 11255 ft 272 kts 200°
2026-05-04 22:49 59.75647 29.93040 11684 ft 300 kts 179°
2026-05-04 22:49 59.73614 29.94533 12185 ft 329 kts 150°
2026-05-04 22:49 59.72009 29.97982 12683 ft 356 kts 123°
2026-05-04 22:50 59.71220 30.02787 13042 ft 378 kts 101°
2026-05-04 22:50 59.70759 30.08039 13466 ft 393 kts 104°
2026-05-04 22:50 59.70087 30.13346 14020 ft 400 kts 108°
2026-05-04 22:50 59.69488 30.18768 14669 ft 407 kts 97°
2026-05-04 22:51 59.69383 30.24401 15349 ft 411 kts 90°
2026-05-04 22:51 59.69388 30.30087 16005 ft 416 kts 91°
2026-05-04 22:51 59.69264 30.35835 16627 ft 421 kts 98°
2026-05-04 22:51 59.68741 30.41556 17251 ft 425 kts 104°
2026-05-04 22:52 59.68038 30.47276 17884 ft 429 kts 105°
2026-05-04 22:52 59.67340 30.52965 18422 ft 434 kts 104°
2026-05-04 22:52 59.66684 30.58833 18958 ft 439 kts 103°
2026-05-04 22:52 59.66051 30.64767 19502 ft 443 kts 103°
2026-05-04 22:53 59.65418 30.70760 20047 ft 447 kts 102°
2026-05-04 22:53 59.64864 30.76838 20571 ft 451 kts 101°
2026-05-04 22:53 59.64360 30.82992 21079 ft 456 kts 100°
2026-05-04 22:53 59.63864 30.89214 21583 ft 460 kts 100°
2026-05-04 22:54 59.63365 30.95496 22090 ft 464 kts 100°
2026-05-04 22:54 59.62854 31.01827 22585 ft 469 kts 100°
2026-05-04 22:54 59.62325 31.08220 23060 ft 473 kts 101°
2026-05-04 22:54 59.61783 31.14658 23489 ft 477 kts 101°
2026-05-04 22:55 59.61230 31.21139 23913 ft 480 kts 101°
2026-05-04 22:55 59.60669 31.27656 24354 ft 482 kts 101°
2026-05-04 22:55 59.60103 31.34193 24774 ft 484 kts 101°
2026-05-04 22:55 59.59530 31.40764 25164 ft 488 kts 101°
2026-05-04 22:56 59.58949 31.47385 25552 ft 490 kts 100°
2026-05-04 22:56 59.58370 31.53947 25939 ft 493 kts 100°
2026-05-04 22:56 59.57778 31.60627 26337 ft 495 kts 100°
2026-05-04 22:56 59.57181 31.67315 26864 ft 494 kts 100°
2026-05-04 22:57 59.56585 31.73950 27465 ft 491 kts 100°
2026-05-04 22:57 59.55988 31.80572 28018 ft 490 kts 100°
2026-05-04 22:57 59.55387 31.87188 28501 ft 490 kts 100°
2026-05-04 22:57 59.54784 31.93806 28999 ft 489 kts 100°
2026-05-04 22:58 59.54177 32.00422 29514 ft 488 kts 100°
2026-05-04 22:58 59.53528 32.06903 29963 ft 488 kts 105°
2026-05-04 22:58 59.52233 32.13044 30310 ft 484 kts 126°
2026-05-04 22:58 59.50048 32.17949 30710 ft 473 kts 144°
2026-05-04 22:59 59.47579 32.22178 31183 ft 471 kts 143°
2026-05-04 22:59 59.45182 32.26575 31585 ft 471 kts 141°
2026-05-04 22:59 59.42830 32.31080 31967 ft 472 kts 140°
2026-05-04 22:59 59.40505 32.35629 32350 ft 471 kts 140°
2026-05-04 23:00 59.38191 32.40179 32771 ft 470 kts 140°
2026-05-04 23:00 59.35885 32.44700 33202 ft 468 kts 140°
2026-05-04 23:00 59.33575 32.49202 33573 ft 467 kts 140°
2026-05-04 23:00 59.31267 32.53674 33888 ft 467 kts 140°
2026-05-04 23:01 59.28959 32.58130 34252 ft 464 kts 140°
2026-05-04 23:01 59.26667 32.62542 34636 ft 461 kts 140°
2026-05-04 23:01 59.24390 32.66914 35009 ft 457 kts 140°
2026-05-04 23:01 59.22116 32.71272 35252 ft 459 kts 140°
2026-05-04 23:02 59.19861 32.75580 35473 ft 459 kts 140°
2026-05-04 23:02 59.17585 32.79921 35835 ft 456 kts 140°
2026-05-04 23:02 59.15326 32.84227 36224 ft 452 kts 140°
2026-05-04 23:02 59.13081 32.88496 36543 ft 450 kts 140°
2026-05-04 23:03 59.10831 32.92764 36705 ft 452 kts 140°
2026-05-04 23:03 59.08571 32.97041 36688 ft 455 kts 140°
2026-05-04 23:03 59.04038 33.05601 36692 ft 453 kts 140°
2026-05-04 23:04 58.99530 33.14085 36692 ft 449 kts 140°
2026-05-04 23:04 58.95039 33.22507 36711 ft 450 kts 140°
2026-05-04 23:05 58.90531 33.30915 36699 ft 449 kts 140°
2026-05-04 23:05 58.86022 33.39273 36710 ft 449 kts 140°
2026-05-04 23:06 58.81506 33.47630 36708 ft 449 kts 140°
2026-05-04 23:06 58.77027 33.55902 36709 ft 449 kts 140°
2026-05-04 23:07 58.72509 33.64212 36719 ft 449 kts 140°
2026-05-04 23:07 58.67989 33.72488 36709 ft 449 kts 140°
2026-05-04 23:08 58.63458 33.80753 36720 ft 452 kts 140°
2026-05-04 23:08 58.58837 33.89143 36729 ft 462 kts 140°
2026-05-04 23:09 58.54120 33.97679 36735 ft 471 kts 140°
2026-05-04 23:09 58.49308 34.06358 36729 ft 479 kts 140°
2026-05-04 23:10 58.44456 34.15077 36728 ft 483 kts 140°
2026-05-04 23:10 58.39569 34.23825 36712 ft 481 kts 140°
2026-05-04 23:11 58.34687 34.32525 36720 ft 481 kts 140°
2026-05-04 23:11 58.29794 34.41209 36714 ft 480 kts 140°
2026-05-04 23:12 58.24903 34.49860 36724 ft 480 kts 140°
2026-05-04 23:12 58.20005 34.58483 36729 ft 480 kts 141°
2026-05-04 23:13 58.14943 34.66688 36725 ft 478 kts 144°
2026-05-04 23:13 58.09800 34.74667 36725 ft 478 kts 144°
2026-05-04 23:14 58.05539 34.81321 36727 ft 478 kts 143°
2026-05-04 23:14 58.00412 34.89364 36730 ft 478 kts 143°
2026-05-04 23:15 57.95299 34.97373 36733 ft 478 kts 143°
2026-05-04 23:15 57.90185 35.05353 36724 ft 477 kts 143°
2026-05-04 23:16 57.85072 35.13298 36730 ft 477 kts 143°
2026-05-04 23:16 57.79943 35.21237 36730 ft 477 kts 143°
2026-05-04 23:17 57.74825 35.29128 36732 ft 477 kts 143°
2026-05-04 23:17 57.69726 35.36964 36733 ft 476 kts 143°
2026-05-04 23:18 57.64599 35.44814 36730 ft 476 kts 143°
2026-05-04 23:18 57.60165 35.54025 36746 ft 482 kts 123°
2026-05-04 23:19 57.57395 35.65392 36755 ft 483 kts 110°
2026-05-04 23:19 57.55144 35.77188 36728 ft 483 kts 110°
2026-05-04 23:20 57.52846 35.88919 36732 ft 482 kts 111°
2026-05-04 23:20 57.50524 36.00556 36732 ft 481 kts 111°
2026-05-04 23:21 57.48183 36.12217 36736 ft 481 kts 111°
2026-05-04 23:21 57.45835 36.23858 36730 ft 480 kts 111°
2026-05-04 23:22 57.43491 36.35461 36733 ft 480 kts 111°
2026-05-04 23:22 57.41145 36.47039 36729 ft 479 kts 111°
2026-05-04 23:23 57.38788 36.58587 36740 ft 479 kts 111°
2026-05-04 23:23 57.36422 36.70108 36736 ft 478 kts 112°
2026-05-04 23:24 57.34047 36.81601 36735 ft 477 kts 112°
2026-05-04 23:24 57.31663 36.93069 36740 ft 477 kts 112°
2026-05-04 23:25 57.29287 37.04439 36739 ft 477 kts 112°
2026-05-04 23:25 57.26886 37.15867 36744 ft 476 kts 112°
2026-05-04 23:26 57.24479 37.27260 36742 ft 476 kts 112°
2026-05-04 23:26 57.22061 37.38640 36754 ft 476 kts 112°
2026-05-04 23:27 57.19636 37.50006 36746 ft 475 kts 112°
2026-05-04 23:27 57.17531 37.61522 36737 ft 476 kts 97°
2026-05-04 23:28 57.17526 37.67611 36767 ft 476 kts 81°
2026-05-04 23:28 57.18315 37.73518 36761 ft 474 kts 67°
2026-05-04 23:28 57.20801 37.84777 36759 ft 474 kts 67°
2026-05-04 23:29 57.23171 37.96137 36750 ft 474 kts 68°
2026-05-04 23:29 57.25496 38.07546 36756 ft 475 kts 68°
2026-05-04 23:30 57.27799 38.18899 36750 ft 475 kts 68°
2026-05-04 23:30 57.30110 38.30327 36757 ft 475 kts 68°
2026-05-04 23:31 57.32404 38.41789 36757 ft 475 kts 68°
2026-05-04 23:31 57.34675 38.53282 36754 ft 475 kts 68°
2026-05-04 23:32 57.36947 38.64780 36753 ft 475 kts 68°
2026-05-04 23:32 57.39216 38.76320 36762 ft 479 kts 69°
2026-05-04 23:33 57.41496 38.88008 36759 ft 483 kts 69°
2026-05-04 23:33 57.43761 38.99692 36740 ft 480 kts 69°
2026-05-04 23:34 57.46013 39.11361 36759 ft 480 kts 69°
2026-05-04 23:34 57.47791 39.23288 36748 ft 480 kts 86°
2026-05-04 23:35 57.47731 39.29474 36757 ft 480 kts 98°
2026-05-04 23:35 57.47041 39.35527 36747 ft 478 kts 110°
2026-05-04 23:35 57.44983 39.47253 36752 ft 477 kts 109°
2026-05-04 23:36 57.43048 39.59021 36759 ft 477 kts 108°
2026-05-04 23:36 57.41136 39.70796 36764 ft 476 kts 108°
2026-05-04 23:37 57.39202 39.82536 36769 ft 476 kts 108°
2026-05-04 23:37 57.37270 39.94166 36772 ft 475 kts 108°
2026-05-04 23:38 57.35259 40.05834 36763 ft 474 kts 114°
2026-05-04 23:38 57.33613 40.11041 36765 ft 467 kts 134°
2026-05-04 23:38 57.31152 40.14856 36776 ft 460 kts 155°
2026-05-04 23:39 57.28221 40.17113 36803 ft 455 kts 167°
2026-05-04 23:39 57.25169 40.18689 36773 ft 454 kts 168°
2026-05-04 23:39 57.19083 40.21793 36767 ft 453 kts 167°
2026-05-04 23:40 57.13024 40.25067 36784 ft 454 kts 167°
2026-05-04 23:40 57.06969 40.28374 36778 ft 454 kts 167°
2026-05-04 23:41 57.01012 40.32264 36788 ft 459 kts 154°
2026-05-04 23:41 56.98340 40.35523 36798 ft 464 kts 143°
2026-05-04 23:41 56.96001 40.39628 36787 ft 467 kts 133°
2026-05-04 23:42 56.91806 40.48635 36791 ft 467 kts 133°
2026-05-04 23:42 56.87528 40.57583 36801 ft 467 kts 134°
2026-05-04 23:43 56.83230 40.66490 36797 ft 467 kts 134°
2026-05-04 23:43 56.78923 40.75377 36795 ft 467 kts 134°
2026-05-04 23:44 56.76760 40.79826 36433 ft 470 kts 134°
2026-05-04 23:44 56.74592 40.84281 35918 ft 468 kts 134°
2026-05-04 23:44 56.72442 40.88691 35408 ft 464 kts 134°
2026-05-04 23:44 56.70302 40.93074 34911 ft 461 kts 134°
2026-05-04 23:45 56.68173 40.97424 34426 ft 459 kts 134°
2026-05-04 23:45 56.66050 41.01759 33945 ft 457 kts 134°
2026-05-04 23:45 56.63962 41.06010 33415 ft 454 kts 134°
2026-05-04 23:45 56.61870 41.10279 32887 ft 453 kts 133°
2026-05-04 23:46 56.59910 41.14766 32346 ft 452 kts 130°
2026-05-04 23:46 56.58027 41.19308 31829 ft 450 kts 129°
2026-05-04 23:46 56.56164 41.23857 31320 ft 448 kts 129°
2026-05-04 23:46 56.54315 41.28378 30812 ft 446 kts 129°
2026-05-04 23:47 56.52464 41.32885 30316 ft 444 kts 129°
2026-05-04 23:47 56.50612 41.37369 29819 ft 443 kts 129°
2026-05-04 23:47 56.48768 41.41808 29251 ft 440 kts 129°
2026-05-04 23:47 56.46925 41.46227 28681 ft 438 kts 130°
2026-05-04 23:48 56.45089 41.50614 28070 ft 438 kts 130°
2026-05-04 23:48 56.43253 41.54992 27451 ft 437 kts 130°
2026-05-04 23:48 56.41415 41.59367 26860 ft 436 kts 130°
2026-05-04 23:48 56.39607 41.63664 26286 ft 435 kts 130°
2026-05-04 23:49 56.37776 41.68008 25713 ft 434 kts 130°
2026-05-04 23:49 56.35948 41.72337 25152 ft 433 kts 130°
2026-05-04 23:49 56.34123 41.76651 24608 ft 432 kts 130°
2026-05-04 23:49 56.32305 41.80942 24054 ft 430 kts 130°
2026-05-04 23:50 56.30489 41.85219 23532 ft 429 kts 130°
2026-05-04 23:50 56.28681 41.89472 22920 ft 427 kts 130°
2026-05-04 23:50 56.26874 41.93716 22289 ft 426 kts 130°
2026-05-04 23:50 56.25077 41.97933 21686 ft 424 kts 130°
2026-05-04 23:51 56.23283 42.02131 21090 ft 422 kts 130°
2026-05-04 23:51 56.21516 42.06330 20508 ft 419 kts 127°
2026-05-04 23:51 56.20141 42.10901 19915 ft 413 kts 113°
2026-05-04 23:51 56.19298 42.15775 19348 ft 404 kts 103°
2026-05-04 23:52 56.18931 42.20719 18806 ft 396 kts 96°
2026-05-04 23:52 56.18685 42.25524 18269 ft 388 kts 95°
2026-05-04 23:52 56.18441 42.30310 17667 ft 382 kts 96°
2026-05-04 23:52 56.18195 42.35000 17123 ft 373 kts 96°
2026-05-04 23:53 56.17953 42.39588 16607 ft 365 kts 96°
2026-05-04 23:53 56.17710 42.44124 16129 ft 364 kts 96°
2026-05-04 23:53 56.17463 42.48651 15657 ft 365 kts 96°
2026-05-04 23:53 56.17212 42.53180 15191 ft 365 kts 96°
2026-05-04 23:54 56.16958 42.57711 14738 ft 364 kts 96°
2026-05-04 23:54 56.16702 42.62232 14278 ft 364 kts 96°
2026-05-04 23:54 56.16444 42.66756 13829 ft 364 kts 96°
2026-05-04 23:54 56.16184 42.71280 13339 ft 364 kts 96°
2026-05-04 23:55 56.15923 42.75793 12896 ft 362 kts 96°
2026-05-04 23:55 56.15663 42.80261 12444 ft 358 kts 95°
2026-05-04 23:55 56.15156 42.88886 11561 ft 338 kts 95°
2026-05-04 23:56 56.14913 42.92977 11134 ft 330 kts 95°
2026-05-04 23:56 56.14672 42.97020 10728 ft 322 kts 95°
2026-05-04 23:56 56.14435 43.00975 10312 ft 316 kts 95°
2026-05-04 23:56 56.14201 43.04853 9901 ft 310 kts 95°
2026-05-04 23:57 56.13973 43.08660 9467 ft 305 kts 95°
2026-05-04 23:57 56.13746 43.12411 9027 ft 300 kts 95°
2026-05-04 23:57 56.13523 43.16034 8601 ft 296 kts 95°
2026-05-04 23:57 56.13298 43.19688 8192 ft 293 kts 94°
2026-05-04 23:58 56.13426 43.23268 7721 ft 289 kts 71°
2026-05-04 23:58 56.14031 43.26647 7634 ft 278 kts 69°
2026-05-04 23:58 56.14646 43.29899 7485 ft 272 kts 68°
2026-05-04 23:58 56.15247 43.33071 7378 ft 265 kts 68°
2026-05-04 23:59 56.15829 43.36165 7306 ft 258 kts 68°
2026-05-04 23:59 56.16393 43.39178 7294 ft 252 kts 68°
2026-05-04 23:59 56.16948 43.42128 7282 ft 247 kts 68°
2026-05-04 23:59 56.17492 43.45030 7304 ft 245 kts 68°
2026-05-05 00:00 56.18035 43.47928 7305 ft 245 kts 68°
2026-05-05 00:00 56.18212 43.48873 7331 ft 247 kts 68°
2026-05-05 00:00 56.19124 43.53781 7266 ft 250 kts 68°
2026-05-05 00:00 56.19675 43.56760 7144 ft 252 kts 68°
2026-05-05 00:01 56.20225 43.59741 7018 ft 250 kts 68°
2026-05-05 00:01 56.20765 43.62681 6913 ft 247 kts 69°
2026-05-05 00:01 56.21302 43.65608 6784 ft 246 kts 68°
2026-05-05 00:01 56.21656 43.67543 6720 ft 245 kts 69°
2026-05-05 00:02 56.22366 43.71408 6594 ft 243 kts 68°
2026-05-05 00:02 56.22894 43.74286 6484 ft 241 kts 69°
2026-05-05 00:02 56.23237 43.76160 6387 ft 236 kts 68°
2026-05-05 00:02 56.23736 43.78904 6297 ft 226 kts 68°
2026-05-05 00:03 56.24222 43.81569 6214 ft 222 kts 68°
2026-05-05 00:03 56.24696 43.84180 6158 ft 219 kts 69°
2026-05-05 00:03 56.25169 43.86799 6089 ft 222 kts 69°
2026-05-05 00:03 56.25646 43.89438 6042 ft 223 kts 69°
2026-05-05 00:04 56.26132 43.92094 5878 ft 227 kts 69°
2026-05-05 00:04 56.26630 43.94825 5597 ft 233 kts 69°
2026-05-05 00:04 56.27132 43.97601 5279 ft 232 kts 70°
2026-05-05 00:04 56.27625 44.00345 4988 ft 229 kts 70°
2026-05-05 00:05 56.28112 44.03049 4662 ft 225 kts 69°
2026-05-05 00:05 56.28842 44.05479 4386 ft 219 kts 40°
2026-05-05 00:05 56.30141 44.06540 4157 ft 204 kts 359°
2026-05-05 00:05 56.31489 44.06130 3990 ft 195 kts 335°
2026-05-05 00:06 56.32625 44.04877 3745 ft 187 kts 307°
2026-05-05 00:06 56.33378 44.03081 3721 ft 178 kts 304°
2026-05-05 00:06 56.34111 44.01277 3628 ft 178 kts 303°
2026-05-05 00:06 56.34834 43.99451 3629 ft 182 kts 304°
2026-05-05 00:07 56.35592 43.97553 3474 ft 186 kts 303°
2026-05-05 00:07 56.36341 43.95680 3403 ft 183 kts 303°
2026-05-05 00:07 56.37079 43.93830 3334 ft 180 kts 303°
2026-05-05 00:07 56.37805 43.92002 3288 ft 179 kts 303°
2026-05-05 00:08 56.38529 43.90170 3241 ft 179 kts 302°
2026-05-05 00:08 56.39147 43.88291 3140 ft 173 kts 283°
2026-05-05 00:08 56.39052 43.86210 3091 ft 170 kts 246°
2026-05-05 00:08 56.38301 43.84537 3046 ft 175 kts 219°
2026-05-05 00:09 56.37146 43.83846 2901 ft 179 kts 198°
2026-05-05 00:09 56.35921 43.83339 2634 ft 181 kts 197°
2026-05-05 00:09 56.34711 43.82880 2415 ft 169 kts 196°
2026-05-05 00:09 56.33565 43.82480 2168 ft 163 kts 198°
2026-05-05 00:10 56.32469 43.82064 1885 ft 159 kts 197°
2026-05-05 00:10 56.31442 43.81686 1688 ft 146 kts 197°
2026-05-05 00:10 56.30445 43.81318 1593 ft 156 kts 197°
2026-05-05 00:10 56.29375 43.80974 1405 ft 156 kts 194°
2026-05-05 00:11 56.28351 43.80552 1114 ft 148 kts 197°
2026-05-05 00:11 56.27346 43.80175 912 ft 147 kts 193°
2026-05-05 00:11 56.26375 43.79817 738 ft 142 kts 192°
2026-05-05 00:11 56.25397 43.79462 557 ft 144 kts 191°
2026-05-05 00:12 56.24412 43.79099 364 ft 145 kts 191°
2026-05-05 00:12 56.23446 43.78751 265 ft 133 kts 191°
2026-05-05 00:12 56.22659 43.78461 264 ft 94 kts 192°
2026-05-05 00:12 56.22177 43.78290 265 ft 38 kts 191°
2026-05-05 00:13 56.22045 43.78241 267 ft 9 kts 192°
2026-05-05 00:13 56.21985 43.78221 266 ft 8 kts 183°
2026-05-05 00:13 56.21948 43.78283 265 ft 8 kts 104°
2026-05-05 00:13 56.21943 43.78327 266 ft 1 kts 100°
2026-05-05 00:14 56.21943 43.78328 266 ft 0 kts 100°
2026-05-05 00:27 56.21941 43.78344 266 ft 4 kts 100°
2026-05-05 00:27 56.21934 43.78419 266 ft 7 kts 100°
2026-05-05 00:27 56.21925 43.78505 265 ft 7 kts 100°
2026-05-05 00:28 56.21917 43.78590 265 ft 7 kts 100°
2026-05-05 00:28 56.21923 43.78672 265 ft 7 kts 57°
2026-05-05 00:28 56.21928 43.78684 265 ft 1 kts 54°
2026-05-05 00:28 56.21944 43.78710 265 ft 5 kts 44°
2026-05-05 00:29 56.21949 43.78788 265 ft 7 kts 99°
2026-05-05 00:29 56.21947 43.78819 265 ft 0 kts 99°